[[{"header":{"parameterUnit":"m.s-1","parameterCategory":1,"la1":30.2991,"la2":30.254,"lo1":-89.0895,"lo2":-89.0444,"dy":0.0017,"dx":0.0017,"nx":28,"ny":28,"refTime":"2025-11-05T03:00:00:Z","depth":0,"parameterNumber":2,"parameterNumberName":"U-component_of_WINDS"},"data":[0,0,0,0,0,0,0,0,0,0,0,0,0,0,0,0,0,0,0,0,0,0,0,0,0,0,0,0,0,0,0,0,0,0,0,0,0,0,0,0,0,0,0,0,0,0,0,0,0,0,0,0,0,0,0,0,0,0,-3.2072,-3.2072,0,-3.208,-3.208,-3.208,-3.2003,-3.2001,-3.1999,-3.1997,-3.2004,-3.2006,-3.2008,0,0,0,0,0,0,0,0,0,0,0,0,0,-3.199,-3.1992,-3.2072,-3.2072,-3.2072,-3.208,-3.208,-3.208,-3.2004,-3.2001,-3.1999,-3.1996,-3.2003,-3.2006,-3.2008,0,0,0,0,0,0,0,0,0,0,0,0,0,-3.2015,-3.1993,-3.2072,-3.2035,-3.2032,-3.208,-3.208,-3.208,-3.2004,-3.2001,-3.1998,-3.1995,-3.2002,-3.2005,-3.2008,-3.2091,0,0,-3.2018,-3.202,0,0,0,0,0,0,0,0,-3.2013,-3.2018,-3.204,-3.2038,-3.2034,-3.2037,-3.2053,-3.2084,-3.2005,-3.2015,-3.1997,-3.1994,-3.2017,-3.2019,-3.2027,-3.2092,-3.2092,-3.2019,-3.202,-3.2022,-3.2023,0,0,0,0,0,0,0,-3.2012,-3.2017,-3.2075,-3.2041,-3.2037,-3.2018,-3.2018,-3.2059,-3.2034,-3.2014,-3.2008,-3.201,-3.2015,-3.2025,-3.2027,-3.2092,-3.2018,-3.2021,-3.2023,-3.2024,-3.2227,-3.223,0,0,0,0,0,0,-3.2015,-3.2016,-3.2075,-3.2075,-3.2016,-3.2022,-3.2022,-3.204,-3.2033,-3.2029,-3.2013,-3.2007,-3.2021,-3.2023,-3.2027,-3.2126,-3.2022,-3.2025,-3.2027,-3.2224,-3.2228,-3.2232,0,0,0,0,0,0,-3.2014,-3.2021,-3.2074,-3.2044,-3.2049,-3.2027,-3.2047,-3.2041,-3.2051,-3.2032,-3.2027,-3.2027,-3.2018,-3.2022,-3.2077,-3.2125,-3.2026,-3.2029,-3.222,-3.2225,-3.223,-3.2322,0,0,0,0,0,0,-3.2012,-3.2021,-3.2053,-3.2045,-3.2051,-3.2124,-3.205,-3.2044,-3.2057,-3.2049,-3.2045,-3.2041,-3.2016,-3.2072,-3.208,-3.2127,-3.2032,-3.2215,-3.2222,-3.2228,-3.2315,-3.233,-3.2343,0,0,0,0,0,-3.2009,-3.2077,-3.2054,-3.2062,-3.209,-3.2127,-3.213,-3.2101,-3.2061,-3.2092,-3.2081,-3.2041,-3.2118,-3.2078,-3.2086,-3.2135,-3.2212,-3.222,-3.2228,-3.2309,-3.2327,-3.2343,0,0,0,0,0,0,-3.2089,-3.2076,-3.205,-3.2118,-3.2125,-3.2114,-3.2153,-3.2121,-3.2138,-3.213,-3.2092,-3.2092,-3.2153,-3.2149,-3.2105,-3.2217,-3.2158,-3.2168,-3.2217,-3.2234,-3.2248,-3.2248,-3.2034,0,0,0,0,0,-3.2115,-3.2147,-3.2133,-3.2194,-3.2199,-3.2176,-3.219,-3.2168,-3.2172,-3.2174,-3.2167,-3.2173,-3.2198,-3.2216,-3.2238,-3.2314,-3.2313,-3.2352,-3.2366,-3.2377,-3.2387,-3.2428,-3.2446,-3.2257,-3.2257,-3.2257,0,0,-3.2168,-3.2165,-3.2187,-3.221,-3.2212,-3.2246,-3.2178,-3.2216,-3.2241,-3.218,-3.2231,-3.2226,-3.223,-3.2296,-3.2325,-3.2295,-3.2438,-3.2387,-3.2397,-3.2399,-3.2438,-3.2456,-3.2472,-3.2263,-3.2262,-3.2261,0,0,-3.2283,-3.2283,-3.2335,-3.234,-3.2344,-3.2329,-3.2342,-3.2336,-3.2331,-3.2382,-3.2338,-3.2366,-3.2411,-3.2416,-3.2425,-3.2544,-3.2509,-3.2552,-3.2626,-3.2667,-3.2682,-3.2695,-3.274,-3.2756,-3.2561,-3.2561,-3.2561,0,-3.2349,-3.2398,-3.2366,-3.2408,-3.242,-3.2367,-3.2421,-3.2426,-3.2437,-3.2447,-3.2414,-3.247,-3.2469,-3.2536,-3.2566,-3.2574,-3.2588,-3.2553,-3.2683,-3.2695,-3.2707,-3.2749,-3.2766,-3.2567,-3.2566,-3.2565,-3.2565,0,-3.248,-3.2515,-3.2556,-3.2571,-3.2587,-3.2634,-3.261,-3.263,-3.2606,-3.2595,-3.2648,-3.2645,-3.2667,-3.2681,-3.2657,-3.2746,-3.2728,-3.2689,-3.263,-3.2731,-3.277,-3.2786,-3.2574,-3.2572,-3.2571,-3.257,0,0,-3.2644,-3.2642,-3.2658,-3.2665,-3.2667,-3.2694,-3.2739,-3.2761,-3.2781,-3.2791,-3.2829,-3.2868,-3.2833,-3.2843,-3.2819,-3.2856,-3.2953,-3.2812,-3.2812,-3.284,-3.3053,-3.3084,-3.3103,-3.2929,-3.2932,-3.2934,-3.3054,0,-3.2758,-3.2836,-3.2809,-3.2889,-3.2922,-3.2873,-3.2913,-3.2919,-3.2909,-3.2936,-3.2924,-3.2954,-3.2905,-3.2911,-3.2944,-3.2934,-3.2995,-3.2925,-3.2965,-3.2967,-3.2967,-3.3123,-3.3154,-3.3267,-3.3068,-3.3071,-3.3073,0,-3.29,-3.2918,-3.3002,-3.3001,-3.3014,-3.305,-3.3069,-3.3095,-3.3101,-3.3092,-3.3104,-3.3073,-3.3118,-3.3058,-3.312,-3.3073,-3.3088,-3.3086,-3.3089,-3.3093,-3.3027,-3.3132,-3.3302,-3.332,-3.3096,-3.3094,-3.3092,0,-3.3015,-3.306,-3.3116,-3.3123,-3.3122,-3.315,-3.315,-3.3153,-3.3169,-3.3186,-3.3196,-3.3218,-3.323,-3.3248,-3.3224,-3.3182,-3.329,-3.3228,-3.3285,-3.3286,-3.3311,-3.331,-3.3487,-3.3318,-3.3317,-3.3317,-3.3317,0,-3.3145,-3.3199,-3.3168,-3.3203,-3.3262,-3.323,-3.3289,-3.3285,-3.3288,-3.3322,-3.328,-3.3312,-3.3278,-3.3307,-3.3288,-3.3344,-3.3349,-3.3343,-3.3338,-3.3348,-3.3349,-3.3358,-3.3351,-3.3321,-3.332,-3.332,-3.3319,0,-3.3284,-3.3265,-3.3324,-3.3319,-3.3319,-3.3363,-3.3359,-3.3391,-3.3379,-3.3422,-3.343,-3.3411,-3.3444,-3.3422,-3.3453,-3.3441,-3.3515,-3.3497,-3.3513,-3.3509,-3.3568,-3.3564,-3.3759,-3.3784,-3.3597,-3.3599,-3.36,0,-3.3369,-3.3409,-3.341,-3.343,-3.3434,-3.3466,-3.3483,-3.3454,-3.3473,-3.3484,-3.3516,-3.3545,-3.3566,-3.3621,-3.361,-3.3634,-3.3619,-3.3685,-3.3622,-3.3632,-3.3622,-3.3621,-3.3626,-3.3699,-3.3701,-3.3703,-3.3704,0,-3.3523,-3.3512,-3.3538,-3.3562,-3.3584,-3.3601,-3.3614,-3.3633,-3.3603,-3.3627,-3.3661,-3.3678,-3.3711,-3.3741,-3.3762,-3.3763,-3.373,-3.3724,-3.3739,-3.3751,-3.3759,-3.3758,-3.355,-3.372,-3.3718,-3.3717,-3.3716,-3.3716,-3.3638,-3.3673,-3.368,-3.3711,-3.3718,-3.3732,-3.3763,-3.3756,-3.3784,-3.381,-3.379,-3.3831,-3.3837,-3.3862,-3.3867,-3.3899,-3.3871,-3.3892,-3.3898,-3.3904,-3.3914,-3.3753,-3.3902,-3.3902,-3.3901,-3.3901,-3.39,0,-3.3792,-3.3794,-3.3823,-3.3845,-3.387,-3.3836,-3.385,-3.3873,-3.391,-3.3919,-3.3942,-3.3981,-3.4011,-3.4003,-3.4029,-3.4056,-3.4042,-3.4064,-3.4063,-3.4064,-3.3935,-3.3921,-3.4076,-3.4076,-3.4076,-3.4076,-3.4076,-3.4076,-3.3875,-3.3933,-3.3923,-3.3985,-3.3986,-3.4026,-3.4038,-3.4051,-3.4058,-3.4105,-3.413,-3.4124,-3.4127,-3.4154,-3.418,-3.4177,-3.4189,-3.4218,-3.421,-3.409,-3.4073,-3.4056,-3.4043,-3.4221,-3.4221,-3.4336,-3.4337,-3.4338]},{"header":{"parameterUnit":"m.s-1","parameterCategory":1,"la1":30.2991,"la2":30.254,"lo1":-89.0895,"lo2":-89.0444,"dy":0.0017,"dx":0.0017,"nx":28,"ny":28,"refTime":"2025-11-05T03:00:00:Z","depth":0,"parameterNumber":3,"parameterNumberName":"V-component_of_WINDS"},"data":[0,0,0,0,0,0,0,0,0,0,0,0,0,0,0,0,0,0,0,0,0,0,0,0,0,0,0,0,0,0,0,0,0,0,0,0,0,0,0,0,0,0,0,0,0,0,0,0,0,0,0,0,0,0,0,0,0,0,-0.6435,-0.6435,0,-0.6467,-0.6467,-0.6468,-0.6415,-0.6414,-0.6412,-0.641,-0.6449,-0.6451,-0.6454,0,0,0,0,0,0,0,0,0,0,0,0,0,-0.6333,-0.6335,-0.6435,-0.6435,-0.6436,-0.6467,-0.6468,-0.6468,-0.6416,-0.6414,-0.6411,-0.6409,-0.6448,-0.6451,-0.6454,0,0,0,0,0,0,0,0,0,0,0,0,0,-0.6372,-0.6336,-0.6435,-0.6413,-0.6412,-0.6467,-0.6468,-0.6468,-0.6416,-0.6414,-0.6411,-0.6408,-0.6447,-0.6451,-0.6455,-0.6534,0,0,-0.6467,-0.6469,0,0,0,0,0,0,0,0,-0.637,-0.6376,-0.6416,-0.6415,-0.6413,-0.6434,-0.6445,-0.649,-0.6417,-0.6415,-0.641,-0.6407,-0.6446,-0.645,-0.6462,-0.6536,-0.6537,-0.6467,-0.647,-0.6472,-0.6473,0,0,0,0,0,0,0,-0.6368,-0.6375,-0.6448,-0.6417,-0.6415,-0.6403,-0.6406,-0.6454,-0.6446,-0.6415,-0.6411,-0.6415,-0.6445,-0.6459,-0.6463,-0.6538,-0.6467,-0.6471,-0.6473,-0.6475,-0.6677,-0.668,0,0,0,0,0,0,-0.6367,-0.6373,-0.6447,-0.6449,-0.6384,-0.6408,-0.641,-0.6431,-0.6445,-0.6444,-0.6417,-0.6413,-0.6453,-0.6458,-0.6464,-0.6558,-0.6472,-0.6475,-0.6478,-0.6674,-0.6678,-0.6681,0,0,0,0,0,0,-0.6365,-0.6374,-0.6446,-0.641,-0.6418,-0.6412,-0.6435,-0.6433,-0.6446,-0.6447,-0.6446,-0.6433,-0.6451,-0.6458,-0.6516,-0.6558,-0.6477,-0.6481,-0.6671,-0.6675,-0.6679,-0.6746,0,0,0,0,0,0,-0.6362,-0.6373,-0.6403,-0.6411,-0.642,-0.6496,-0.6438,-0.6435,-0.6452,-0.6446,-0.6461,-0.6461,-0.645,-0.6511,-0.652,-0.6562,-0.6484,-0.6667,-0.6673,-0.6678,-0.674,-0.6752,-0.6762,0,0,0,0,0,-0.6359,-0.6422,-0.6405,-0.6414,-0.6456,-0.6499,-0.6504,-0.6489,-0.6456,-0.6486,-0.6486,-0.646,-0.6552,-0.6517,-0.6528,-0.6572,-0.6664,-0.6671,-0.6677,-0.6735,-0.675,-0.6762,0,0,0,0,0,0,-0.6422,-0.6423,-0.6404,-0.6471,-0.6485,-0.649,-0.6528,-0.6505,-0.653,-0.6524,-0.6505,-0.6509,-0.6571,-0.6577,-0.6538,-0.6649,-0.6603,-0.6612,-0.6643,-0.6657,-0.6668,-0.6666,-0.6487,0,0,0,0,0,-0.6443,-0.6476,-0.6475,-0.6535,-0.6543,-0.6534,-0.6552,-0.6538,-0.6553,-0.6559,-0.6564,-0.6581,-0.6613,-0.6635,-0.6665,-0.674,-0.6742,-0.6775,-0.6786,-0.6795,-0.6804,-0.6844,-0.6859,-0.6703,-0.6702,-0.6702,0,0,-0.6488,-0.6493,-0.6515,-0.6548,-0.6557,-0.6593,-0.6539,-0.658,-0.6607,-0.6566,-0.6621,-0.6624,-0.6642,-0.6708,-0.6738,-0.6715,-0.6847,-0.6804,-0.6811,-0.6815,-0.6852,-0.6867,-0.688,-0.6707,-0.6706,-0.6705,0,0,-0.6589,-0.6595,-0.6645,-0.6655,-0.6669,-0.6662,-0.6674,-0.6682,-0.6682,-0.6736,-0.6706,-0.6738,-0.6794,-0.6807,-0.6822,-0.6925,-0.6902,-0.6935,-0.6994,-0.7033,-0.7046,-0.7057,-0.7094,-0.7108,-0.6943,-0.6944,-0.6944,0,-0.6644,-0.6695,-0.6674,-0.6716,-0.6731,-0.6693,-0.6744,-0.6755,-0.6779,-0.6791,-0.6765,-0.6833,-0.6842,-0.6911,-0.6936,-0.6949,-0.6962,-0.6934,-0.7045,-0.7056,-0.7066,-0.7101,-0.7115,-0.6948,-0.6947,-0.6947,-0.6946,0,-0.6763,-0.6798,-0.6837,-0.6859,-0.6878,-0.6925,-0.6911,-0.6934,-0.6918,-0.6914,-0.697,-0.6978,-0.7009,-0.7024,-0.701,-0.7091,-0.7076,-0.7048,-0.7002,-0.7085,-0.7118,-0.7131,-0.6953,-0.6952,-0.6951,-0.695,0,0,-0.6907,-0.6913,-0.6928,-0.6937,-0.6948,-0.6976,-0.7021,-0.7048,-0.7068,-0.7086,-0.7123,-0.717,-0.7143,-0.7159,-0.7146,-0.718,-0.7261,-0.7147,-0.7147,-0.7169,-0.7352,-0.7374,-0.739,-0.7245,-0.7248,-0.725,-0.735,0,-0.7007,-0.7082,-0.7063,-0.7138,-0.7171,-0.7135,-0.7173,-0.7185,-0.7182,-0.7211,-0.7209,-0.7242,-0.7204,-0.7213,-0.7245,-0.7245,-0.7298,-0.7237,-0.7282,-0.7283,-0.728,-0.7407,-0.7431,-0.7526,-0.7363,-0.7365,-0.7367,0,-0.7135,-0.7155,-0.7232,-0.7237,-0.725,-0.7285,-0.7308,-0.7336,-0.7348,-0.7344,-0.736,-0.734,-0.7385,-0.7336,-0.7398,-0.7357,-0.7374,-0.7376,-0.738,-0.7385,-0.7331,-0.7417,-0.7556,-0.757,-0.7387,-0.7385,-0.7384,0,-0.7233,-0.7279,-0.7331,-0.734,-0.7346,-0.7371,-0.7376,-0.7385,-0.7403,-0.7423,-0.7434,-0.7461,-0.7476,-0.7497,-0.7484,-0.745,-0.7549,-0.75,-0.7548,-0.7548,-0.7572,-0.7571,-0.7717,-0.7581,-0.758,-0.758,-0.758,0,-0.7348,-0.7398,-0.7375,-0.7407,-0.7461,-0.7439,-0.7494,-0.7494,-0.7502,-0.7534,-0.7504,-0.7536,-0.7516,-0.7547,-0.7537,-0.759,-0.7597,-0.7595,-0.7593,-0.7599,-0.7599,-0.7611,-0.7605,-0.7584,-0.7583,-0.7582,-0.7582,0,-0.7468,-0.7455,-0.7509,-0.7509,-0.7511,-0.7551,-0.7552,-0.7582,-0.7576,-0.7617,-0.7626,-0.7617,-0.765,-0.7639,-0.7676,-0.767,-0.7737,-0.7725,-0.7733,-0.773,-0.7779,-0.7775,-0.7939,-0.796,-0.7809,-0.781,-0.7812,0,-0.7543,-0.758,-0.7583,-0.7602,-0.7607,-0.7638,-0.7655,-0.7634,-0.7653,-0.7669,-0.7697,-0.7728,-0.7751,-0.7807,-0.7805,-0.7832,-0.7822,-0.7877,-0.7826,-0.7831,-0.7824,-0.7822,-0.7826,-0.7888,-0.789,-0.7891,-0.7892,0,-0.7679,-0.7669,-0.7694,-0.7716,-0.7736,-0.7753,-0.7767,-0.7784,-0.7764,-0.7787,-0.782,-0.7838,-0.7873,-0.7905,-0.7929,-0.7935,-0.7911,-0.7908,-0.7921,-0.7928,-0.7931,-0.7931,-0.7762,-0.7905,-0.7904,-0.7903,-0.7902,-0.7902,-0.7779,-0.781,-0.7816,-0.7844,-0.7852,-0.7865,-0.7894,-0.789,-0.7916,-0.7942,-0.7928,-0.7967,-0.7977,-0.8007,-0.8016,-0.8046,-0.8025,-0.8043,-0.8048,-0.8054,-0.806,-0.7925,-0.805,-0.805,-0.805,-0.8049,-0.8049,0,-0.7913,-0.7915,-0.7941,-0.796,-0.7982,-0.7955,-0.7968,-0.7989,-0.8023,-0.8033,-0.8056,-0.8093,-0.8122,-0.8121,-0.8149,-0.8173,-0.8163,-0.8181,-0.818,-0.8182,-0.8077,-0.8064,-0.8189,-0.8189,-0.8189,-0.8189,-0.8189,-0.8189,-0.7986,-0.8036,-0.8027,-0.8081,-0.8082,-0.8118,-0.8128,-0.8141,-0.8149,-0.8191,-0.8214,-0.8212,-0.8219,-0.8245,-0.8271,-0.827,-0.8282,-0.8305,-0.83,-0.8203,-0.8189,-0.8176,-0.8163,-0.8307,-0.8308,-0.8402,-0.8403,-0.8404]}]]